Time,TemperatureF,DewpointF,PressureIn,WindDirection,WindDirectionDegrees,WindSpeedMPH,WindSpeedGustMPH,Humidity,HourlyPrecipIn,Conditions,Clouds,dailyrainin,SoftwareType,DateUTC
2013-01-11 00:00:00,45.7,35.8,30.19,West,277,3.0,14.0,68,0.00,,,0.00,meteohub,2013-01-11 08:00:00,
2013-01-11 00:05:00,45.7,35.4,30.19,West,268,6.0,13.0,67,0.00,,,0.00,meteohub,2013-01-11 08:05:00,
2013-01-11 00:10:00,45.7,35.4,30.19,NW,315,6.0,12.0,67,0.00,,,0.00,meteohub,2013-01-11 08:10:00,
2013-01-11 00:15:00,45.7,36.5,30.19,NW,313,3.0,11.0,70,0.00,,,0.00,meteohub,2013-01-11 08:15:00,
2013-01-11 00:20:00,45.5,36.0,30.19,West,260,3.0,14.0,69,0.00,,,0.00,meteohub,2013-01-11 08:20:00,
2013-01-11 00:25:00,45.5,36.3,30.19,NNW,340,2.0,14.0,70,0.00,,,0.00,meteohub,2013-01-11 08:25:00,
2013-01-11 00:30:00,45.5,36.3,30.19,NW,317,2.0,14.0,70,0.00,,,0.00,meteohub,2013-01-11 08:30:00,
2013-01-11 00:35:00,45.3,36.1,30.19,WNW,295,1.0,14.0,70,0.00,,,0.00,meteohub,2013-01-11 08:35:00,
2013-01-11 00:40:00,45.3,36.5,30.19,NNW,333,7.0,14.0,71,0.00,,,0.00,meteohub,2013-01-11 08:40:00,
2013-01-11 00:45:00,45.5,36.3,30.18,NW,308,4.0,13.0,70,0.00,,,0.00,meteohub,2013-01-11 08:45:00,
2013-01-11 00:50:00,45.5,36.7,30.18,NW,318,4.0,15.0,71,0.00,,,0.00,meteohub,2013-01-11 08:50:00,
2013-01-11 00:55:00,45.7,36.9,30.18,WNW,294,5.0,15.0,71,0.00,,,0.00,meteohub,2013-01-11 08:55:00,
2013-01-11 01:00:00,45.7,36.9,30.18,WNW,297,5.0,16.0,71,0.00,,,0.00,meteohub,2013-01-11 09:00:00,
2013-01-11 01:05:00,45.7,36.5,30.18,WSW,252,4.0,17.0,70,0.00,,,0.00,meteohub,2013-01-11 09:05:00,
2013-01-11 01:11:00,45.7,36.5,30.18,WNW,287,8.0,17.0,70,0.00,,,0.00,meteohub,2013-01-11 09:11:00,
2013-01-11 01:16:00,45.7,36.1,30.18,NW,316,6.0,17.0,69,0.00,,,0.00,meteohub,2013-01-11 09:16:00,
2013-01-11 01:21:00,45.7,36.5,30.18,WNW,297,2.0,14.0,70,0.00,,,0.00,meteohub,2013-01-11 09:21:00,
2013-01-11 01:26:00,45.7,36.1,30.18,NE,47,6.0,14.0,69,0.00,,,0.00,meteohub,2013-01-11 09:26:00,
2013-01-11 01:31:00,45.7,36.9,30.18,West,274,5.0,14.0,71,0.00,,,0.00,meteohub,2013-01-11 09:31:00,
2013-01-11 01:36:00,45.7,36.1,30.18,WNW,295,3.0,14.0,69,0.00,,,0.00,meteohub,2013-01-11 09:36:00,
2013-01-11 01:41:00,45.9,36.3,30.19,NW,312,2.0,14.0,69,0.00,,,0.00,meteohub,2013-01-11 09:41:00,
2013-01-11 01:46:00,45.9,36.3,30.18,NNW,333,2.0,14.0,69,0.00,,,0.00,meteohub,2013-01-11 09:46:00,
2013-01-11 01:51:00,45.9,35.6,30.19,North,4,1.0,10.0,67,0.00,,,0.00,meteohub,2013-01-11 09:51:00,
2013-01-11 01:56:00,45.9,36.7,30.19,WNW,291,9.0,9.0,70,0.00,,,0.00,meteohub,2013-01-11 09:56:00,
2013-01-11 02:01:00,45.9,36.7,30.19,West,277,3.0,12.0,70,0.00,,,0.00,meteohub,2013-01-11 10:01:00,
2013-01-11 02:06:00,45.9,36.0,30.19,NW,312,4.0,12.0,68,0.00,,,0.00,meteohub,2013-01-11 10:06:00,
2013-01-11 02:11:00,45.9,35.1,30.19,WNW,301,5.0,12.0,66,0.00,,,0.00,meteohub,2013-01-11 10:11:00,
2013-01-11 02:16:00,45.9,36.7,30.19,WNW,302,5.0,9.0,70,0.00,,,0.00,meteohub,2013-01-11 10:16:00,
2013-01-11 02:21:00,45.7,36.5,30.19,NW,308,3.0,15.0,70,0.00,,,0.00,meteohub,2013-01-11 10:21:00,
2013-01-11 02:26:00,45.7,35.4,30.19,NW,306,4.0,15.0,67,0.00,,,0.00,meteohub,2013-01-11 10:26:00,
2013-01-11 02:31:00,45.7,35.1,30.19,NW,315,3.0,15.0,66,0.00,,,0.00,meteohub,2013-01-11 10:31:00,
2013-01-11 02:36:00,45.7,35.8,30.19,NNW,337,3.0,12.0,68,0.00,,,0.00,meteohub,2013-01-11 10:36:00,
2013-01-11 02:41:00,45.7,35.8,30.19,WNW,297,2.0,12.0,68,0.00,,,0.00,meteohub,2013-01-11 10:41:00,
2013-01-11 02:46:00,45.7,35.4,30.20,WNW,296,8.0,13.0,67,0.00,,,0.00,meteohub,2013-01-11 10:46:00,
2013-01-11 02:51:00,45.7,35.4,30.19,WNW,298,4.0,14.0,67,0.00,,,0.00,meteohub,2013-01-11 10:51:00,
2013-01-11 02:56:00,45.5,36.0,30.19,NW,324,0.0,14.0,69,0.00,,,0.00,meteohub,2013-01-11 10:56:00,
2013-01-11 03:01:00,45.3,35.8,30.19,NW,308,7.0,14.0,69,0.00,,,0.00,meteohub,2013-01-11 11:01:00,
2013-01-11 03:06:00,45.3,34.3,30.19,NNW,331,5.0,11.0,65,0.00,,,0.00,meteohub,2013-01-11 11:06:00,
2013-01-11 03:12:00,45.3,33.4,30.19,NNW,335,0.0,8.0,63,0.00,,,0.00,meteohub,2013-01-11 11:12:00,
2013-01-11 03:17:00,45.3,33.4,30.19,North,350,3.0,8.0,63,0.00,,,0.00,meteohub,2013-01-11 11:17:00,
2013-01-11 03:22:00,45.1,32.9,30.19,NNE,12,0.0,8.0,62,0.00,,,0.00,meteohub,2013-01-11 11:22:00,
2013-01-11 03:27:00,45.1,32.9,30.19,North,354,0.0,7.0,62,0.00,,,0.00,meteohub,2013-01-11 11:27:00,
2013-01-11 03:32:00,45.0,32.4,30.19,North,8,2.0,7.0,61,0.00,,,0.00,meteohub,2013-01-11 11:32:00,
2013-01-11 03:37:00,45.1,32.9,30.19,ESE,117,0.0,4.0,62,0.00,,,0.00,meteohub,2013-01-11 11:37:00,
2013-01-11 03:42:00,45.0,32.7,30.19,SE,133,0.0,5.0,62,0.00,,,0.00,meteohub,2013-01-11 11:42:00,
2013-01-11 03:47:00,45.1,33.3,30.19,West,266,1.0,6.0,63,0.00,,,0.00,meteohub,2013-01-11 11:47:00,
2013-01-11 03:52:00,45.3,33.4,30.19,WNW,291,0.0,7.0,63,0.00,,,0.00,meteohub,2013-01-11 11:52:00,
2013-01-11 03:57:00,45.1,33.6,30.19,North,359,0.0,7.0,64,0.00,,,0.00,meteohub,2013-01-11 11:57:00,
2013-01-11 04:02:00,45.1,33.6,30.19,North,0,0.0,7.0,64,0.00,,,0.00,meteohub,2013-01-11 12:02:00,
2013-01-11 04:07:00,45.1,33.6,30.19,North,353,0.0,4.0,64,0.00,,,0.00,meteohub,2013-01-11 12:07:00,
2013-01-11 04:12:00,45.1,34.5,30.19,WNW,295,3.0,4.0,66,0.00,,,0.00,meteohub,2013-01-11 12:12:00,
2013-01-11 04:17:00,45.1,34.5,30.19,ENE,68,0.0,4.0,66,0.00,,,0.00,meteohub,2013-01-11 12:17:00,
2013-01-11 04:22:00,45.1,34.2,30.19,NE,53,0.0,4.0,65,0.00,,,0.00,meteohub,2013-01-11 12:22:00,
2013-01-11 04:27:00,45.0,33.1,30.19,East,79,2.0,5.0,63,0.00,,,0.00,meteohub,2013-01-11 12:27:00,
2013-01-11 04:32:00,44.8,32.2,30.19,East,97,0.0,5.0,61,0.00,,,0.00,meteohub,2013-01-11 12:32:00,
2013-01-11 04:37:00,44.6,32.4,30.19,SE,134,0.0,5.0,62,0.00,,,0.00,meteohub,2013-01-11 12:37:00,
2013-01-11 04:42:00,44.2,32.4,30.19,SE,139,1.0,4.0,63,0.00,,,0.00,meteohub,2013-01-11 12:42:00,
2013-01-11 04:47:00,44.2,32.9,30.19,East,87,2.0,4.0,64,0.00,,,0.00,meteohub,2013-01-11 12:47:00,
2013-01-11 04:52:00,44.2,32.4,30.19,ESE,116,1.0,6.0,63,0.00,,,0.00,meteohub,2013-01-11 12:52:00,
2013-01-11 04:57:00,44.4,34.2,30.19,WNW,291,5.0,8.0,67,0.00,,,0.00,meteohub,2013-01-11 12:57:00,
2013-01-11 05:02:00,45.0,35.1,30.19,WNW,302,3.0,10.0,68,0.00,,,0.00,meteohub,2013-01-11 13:02:00,
2013-01-11 05:07:00,45.3,35.4,30.19,NW,311,3.0,13.0,68,0.00,,,0.00,meteohub,2013-01-11 13:07:00,
2013-01-11 05:12:00,45.3,35.4,30.20,NW,309,3.0,13.0,68,0.00,,,0.00,meteohub,2013-01-11 13:12:00,
2013-01-11 05:17:00,45.3,35.1,30.20,WNW,289,13.0,13.0,67,0.00,,,0.00,meteohub,2013-01-11 13:17:00,
2013-01-11 05:22:00,45.3,35.1,30.21,NW,309,2.0,14.0,67,0.00,,,0.00,meteohub,2013-01-11 13:22:00,
2013-01-11 05:27:00,45.3,35.4,30.21,West,281,3.0,14.0,68,0.00,,,0.00,meteohub,2013-01-11 13:27:00,
2013-01-11 05:32:00,45.1,34.9,30.21,NNW,345,0.0,14.0,67,0.00,,,0.00,meteohub,2013-01-11 13:32:00,
2013-01-11 05:37:00,45.1,35.2,30.21,NNE,21,0.0,12.0,68,0.00,,,0.00,meteohub,2013-01-11 13:37:00,
2013-01-11 05:42:00,45.0,35.4,30.22,North,11,2.0,8.0,69,0.00,,,0.00,meteohub,2013-01-11 13:42:00,
2013-01-11 05:47:00,45.0,35.4,30.21,NNE,33,0.0,8.0,69,0.00,,,0.00,meteohub,2013-01-11 13:47:00,
2013-01-11 05:52:00,45.0,35.8,30.21,NNW,347,0.0,7.0,70,0.00,,,0.00,meteohub,2013-01-11 13:52:00,
2013-01-11 05:57:00,44.8,35.2,30.21,NNE,21,2.0,7.0,69,0.00,,,0.00,meteohub,2013-01-11 13:57:00,
2013-01-11 06:02:00,44.6,33.6,30.21,NNE,23,0.0,6.0,65,0.00,,,0.00,meteohub,2013-01-11 14:02:00,
2013-01-11 06:07:00,44.4,33.8,30.22,NNE,23,0.0,4.0,66,0.00,,,0.00,meteohub,2013-01-11 14:07:00,
2013-01-11 06:12:00,44.2,33.6,30.21,NNE,23,0.0,4.0,66,0.00,,,0.00,meteohub,2013-01-11 14:12:00,
2013-01-11 06:17:00,43.9,33.6,30.22,NNE,22,1.0,2.0,67,0.00,,,0.00,meteohub,2013-01-11 14:17:00,
2013-01-11 06:22:00,44.1,33.1,30.21,West,274,0.0,4.0,65,0.00,,,0.00,meteohub,2013-01-11 14:22:00,
2013-01-11 06:27:00,44.2,34.3,30.21,WNW,298,1.0,5.0,68,0.00,,,0.00,meteohub,2013-01-11 14:27:00,
2013-01-11 06:32:00,44.2,34.3,30.22,WNW,297,0.0,7.0,68,0.00,,,0.00,meteohub,2013-01-11 14:32:00,
2013-01-11 06:37:00,44.1,34.9,30.22,West,267,0.0,7.0,70,0.00,,,0.00,meteohub,2013-01-11 14:37:00,
2013-01-11 06:42:00,44.2,35.1,30.22,NW,326,4.0,6.0,70,0.00,,,0.00,meteohub,2013-01-11 14:42:00,
2013-01-11 06:47:00,44.4,34.9,30.22,NW,316,4.0,8.0,69,0.00,,,0.00,meteohub,2013-01-11 14:47:00,
2013-01-11 06:52:00,44.6,34.7,30.22,WNW,290,4.0,9.0,68,0.00,,,0.00,meteohub,2013-01-11 14:52:00,
2013-01-11 06:57:00,44.8,35.2,30.22,NE,48,1.0,9.0,69,0.00,,,0.00,meteohub,2013-01-11 14:57:00,
2013-01-11 07:02:00,44.6,35.1,30.23,SW,235,0.0,9.0,69,0.00,,,0.00,meteohub,2013-01-11 15:02:00,
2013-01-11 07:07:00,44.4,35.2,30.23,NNE,16,3.0,9.0,70,0.00,,,0.00,meteohub,2013-01-11 15:07:00,
2013-01-11 07:12:00,44.4,35.2,30.23,NNW,339,6.0,6.0,70,0.00,,,0.00,meteohub,2013-01-11 15:12:00,
2013-01-11 07:17:00,44.4,34.5,30.23,NNW,329,2.0,7.0,68,0.00,,,0.00,meteohub,2013-01-11 15:17:00,
2013-01-11 07:22:00,44.4,34.5,30.24,NW,322,0.0,7.0,68,0.00,,,0.00,meteohub,2013-01-11 15:22:00,
2013-01-11 07:27:00,44.2,34.3,30.23,NW,322,0.0,7.0,68,0.00,,,0.00,meteohub,2013-01-11 15:27:00,
2013-01-11 07:32:00,44.1,34.5,30.24,NW,322,0.0,5.0,69,0.00,,,0.00,meteohub,2013-01-11 15:32:00,
2013-01-11 07:37:00,43.9,34.7,30.24,NE,40,2.0,2.0,70,0.00,,,0.00,meteohub,2013-01-11 15:37:00,
2013-01-11 07:42:00,43.7,34.5,30.24,East,93,3.0,3.0,70,0.00,,,0.00,meteohub,2013-01-11 15:42:00,
2013-01-11 07:47:00,43.7,34.9,30.24,East,91,4.0,5.0,71,0.00,,,0.00,meteohub,2013-01-11 15:47:00,
2013-01-11 07:52:00,43.5,34.7,30.24,ESE,104,0.0,5.0,71,0.00,,,0.00,meteohub,2013-01-11 15:52:00,
2013-01-11 07:57:00,43.7,35.2,30.25,East,85,0.0,7.0,72,0.00,,,0.00,meteohub,2013-01-11 15:57:00,
2013-01-11 08:02:00,43.9,35.4,30.25,East,83,0.0,7.0,72,0.00,,,0.00,meteohub,2013-01-11 16:02:00,
2013-01-11 08:07:00,44.1,35.2,30.25,ENE,57,1.0,6.0,71,0.00,,,0.00,meteohub,2013-01-11 16:07:00,
2013-01-11 08:12:00,44.4,35.6,30.25,ENE,57,0.0,4.0,71,0.00,,,0.00,meteohub,2013-01-11 16:12:00,
2013-01-11 08:17:00,44.8,36.0,30.25,East,95,0.0,4.0,71,0.00,,,0.00,meteohub,2013-01-11 16:17:00,
2013-01-11 08:22:00,45.1,36.3,30.25,East,87,1.0,4.0,71,0.00,,,0.00,meteohub,2013-01-11 16:22:00,
2013-01-11 08:27:00,45.3,36.1,30.25,ESE,114,0.0,5.0,70,0.00,,,0.00,meteohub,2013-01-11 16:27:00,
2013-01-11 08:32:00,45.7,36.1,30.25,ESE,103,0.0,5.0,69,0.00,,,0.00,meteohub,2013-01-11 16:32:00,
2013-01-11 08:37:00,45.7,36.1,30.25,SE,131,4.0,5.0,69,0.00,,,0.00,meteohub,2013-01-11 16:37:00,
2013-01-11 08:42:00,45.7,35.8,30.25,ESE,112,3.0,4.0,68,0.00,,,0.00,meteohub,2013-01-11 16:42:00,
2013-01-11 08:47:00,45.7,35.8,30.25,ESE,112,0.0,4.0,68,0.00,,,0.00,meteohub,2013-01-11 16:47:00,
2013-01-11 08:52:00,45.7,35.8,30.25,ESE,112,0.0,4.0,68,0.00,,,0.00,meteohub,2013-01-11 16:52:00,
2013-01-11 08:57:00,45.5,35.6,30.25,ESE,112,0.0,3.0,68,0.00,,,0.00,meteohub,2013-01-11 16:57:00,
2013-01-11 09:02:00,45.7,36.1,30.25,ESE,112,0.0,3.0,69,0.00,,,0.00,meteohub,2013-01-11 17:02:00,
2013-01-11 09:07:00,45.7,36.1,30.26,ESE,111,0.0,3.0,69,0.00,,,0.00,meteohub,2013-01-11 17:07:00,
2013-01-11 09:12:00,45.7,35.8,30.25,ENE,65,0.0,4.0,68,0.00,,,0.00,meteohub,2013-01-11 17:12:00,
2013-01-11 09:17:00,45.7,35.4,30.25,ESE,110,0.0,4.0,67,0.00,,,0.00,meteohub,2013-01-11 17:17:00,
2013-01-11 09:22:00,45.7,35.4,30.25,East,95,1.0,4.0,67,0.00,,,0.00,meteohub,2013-01-11 17:22:00,
2013-01-11 09:27:00,45.9,35.1,30.25,SE,126,2.0,3.0,66,0.00,,,0.00,meteohub,2013-01-11 17:27:00,
2013-01-11 09:32:00,46.0,35.2,30.25,SE,125,0.0,3.0,66,0.00,,,0.00,meteohub,2013-01-11 17:32:00,
2013-01-11 09:37:00,46.2,35.1,30.25,SE,125,0.0,3.0,65,0.00,,,0.00,meteohub,2013-01-11 17:37:00,
2013-01-11 09:42:00,46.6,35.1,30.25,ESE,103,0.0,4.0,64,0.00,,,0.00,meteohub,2013-01-11 17:42:00,
2013-01-11 09:47:00,46.8,34.9,30.25,ESE,114,2.0,4.0,63,0.00,,,0.00,meteohub,2013-01-11 17:47:00,
2013-01-11 09:52:00,46.9,34.5,30.25,East,80,0.0,4.0,62,0.00,,,0.00,meteohub,2013-01-11 17:52:00,
2013-01-11 09:57:00,47.1,34.7,30.25,ESE,107,2.0,4.0,62,0.00,,,0.00,meteohub,2013-01-11 17:57:00,
2013-01-11 10:02:00,47.3,34.9,30.26,ESE,104,3.0,5.0,62,0.00,,,0.00,meteohub,2013-01-11 18:02:00,
2013-01-11 10:07:00,47.5,35.1,30.26,ESE,103,3.0,5.0,62,0.00,,,0.00,meteohub,2013-01-11 18:07:00,
2013-01-11 10:12:00,47.7,34.9,30.26,ESE,102,1.0,5.0,61,0.00,,,0.00,meteohub,2013-01-11 18:12:00,
2013-01-11 10:17:00,47.8,35.1,30.26,ESE,102,0.0,5.0,61,0.00,,,0.00,meteohub,2013-01-11 18:17:00,
2013-01-11 10:22:00,48.0,35.2,30.25,ESE,112,2.0,3.0,61,0.00,,,0.00,meteohub,2013-01-11 18:22:00,
2013-01-11 10:27:00,48.2,35.8,30.25,SE,141,1.0,4.0,62,0.00,,,0.00,meteohub,2013-01-11 18:27:00,
2013-01-11 10:32:00,48.4,35.6,30.25,East,82,1.0,4.0,61,0.00,,,0.00,meteohub,2013-01-11 18:32:00,
2013-01-11 10:37:00,48.4,35.6,30.25,ESE,106,1.0,4.0,61,0.00,,,0.00,meteohub,2013-01-11 18:37:00,
2013-01-11 10:42:00,48.6,35.8,30.25,South,190,1.0,3.0,61,0.00,,,0.00,meteohub,2013-01-11 18:42:00,
2013-01-11 10:47:00,48.6,35.8,30.25,SW,220,1.0,3.0,61,0.00,,,0.00,meteohub,2013-01-11 18:47:00,
2013-01-11 10:52:00,48.6,35.2,30.25,SW,221,0.0,3.0,60,0.00,,,0.00,meteohub,2013-01-11 18:52:00,
2013-01-11 10:57:00,48.6,35.8,30.24,WSW,250,2.0,3.0,61,0.00,,,0.00,meteohub,2013-01-11 18:57:00,
2013-01-11 11:02:00,48.6,35.2,30.24,West,266,0.0,4.0,60,0.00,,,0.00,meteohub,2013-01-11 19:02:00,
2013-01-11 11:07:00,48.4,35.6,30.24,WNW,283,0.0,5.0,61,0.00,,,0.00,meteohub,2013-01-11 19:07:00,
2013-01-11 11:12:00,48.4,35.6,30.24,West,262,0.0,5.0,61,0.00,,,0.00,meteohub,2013-01-11 19:12:00,
2013-01-11 11:17:00,48.7,36.0,30.23,WSW,257,5.0,5.0,61,0.00,,,0.00,meteohub,2013-01-11 19:17:00,
2013-01-11 11:22:00,48.9,35.6,30.22,West,270,0.0,7.0,60,0.00,,,0.00,meteohub,2013-01-11 19:22:00,
2013-01-11 11:27:00,49.1,35.8,30.22,WNW,299,5.0,7.0,60,0.00,,,0.00,meteohub,2013-01-11 19:27:00,
2013-01-11 11:32:00,48.9,35.6,30.22,WNW,299,4.0,7.0,60,0.00,,,0.00,meteohub,2013-01-11 19:32:00,
2013-01-11 11:37:00,48.9,36.5,30.22,NW,306,2.0,7.0,62,0.00,,,0.00,meteohub,2013-01-11 19:37:00,
2013-01-11 11:42:00,49.1,36.7,30.22,NW,311,5.0,7.0,62,0.00,,,0.00,meteohub,2013-01-11 19:42:00,
2013-01-11 11:47:00,49.1,35.8,30.22,WNW,299,0.0,7.0,60,0.00,,,0.00,meteohub,2013-01-11 19:47:00,
2013-01-11 11:52:00,49.3,36.9,30.21,NW,324,4.0,7.0,62,0.00,,,0.00,meteohub,2013-01-11 19:52:00,
2013-01-11 11:57:00,49.3,36.0,30.21,West,262,6.0,6.0,60,0.00,,,0.00,meteohub,2013-01-11 19:57:00,
2013-01-11 12:02:00,49.5,36.1,30.20,NW,305,3.0,6.0,60,0.00,,,0.00,meteohub,2013-01-11 20:02:00,
2013-01-11 12:07:00,49.5,36.1,30.20,WNW,299,3.0,9.0,60,0.00,,,0.00,meteohub,2013-01-11 20:07:00,
2013-01-11 12:12:00,49.5,37.0,30.20,NW,312,3.0,9.0,62,0.00,,,0.00,meteohub,2013-01-11 20:12:00,
2013-01-11 12:17:00,49.6,37.2,30.20,NW,318,1.0,9.0,62,0.00,,,0.00,meteohub,2013-01-11 20:17:00,
2013-01-11 12:22:00,50.4,37.4,30.19,WNW,289,5.0,9.0,61,0.00,,,0.00,meteohub,2013-01-11 20:22:00,
2013-01-11 12:27:00,50.5,37.9,30.19,SW,230,5.0,8.0,62,0.00,,,0.00,meteohub,2013-01-11 20:27:00,
2013-01-11 12:32:00,50.5,38.8,30.19,NW,307,1.0,8.0,64,0.00,,,0.00,meteohub,2013-01-11 20:32:00,
2013-01-11 12:37:00,50.5,39.6,30.19,NW,307,0.0,10.0,66,0.00,,,0.00,meteohub,2013-01-11 20:37:00,
2013-01-11 12:42:00,50.9,39.9,30.18,NW,319,0.0,10.0,66,0.00,,,0.00,meteohub,2013-01-11 20:42:00,
2013-01-11 12:47:00,50.9,40.3,30.18,WSW,246,1.0,10.0,67,0.00,,,0.00,meteohub,2013-01-11 20:47:00,
2013-01-11 12:52:00,51.3,40.6,30.18,West,263,6.0,10.0,67,0.00,,,0.00,meteohub,2013-01-11 20:52:00,
2013-01-11 12:57:00,50.9,41.2,30.18,West,272,6.0,10.0,69,0.00,,,0.00,meteohub,2013-01-11 20:57:00,
2013-01-11 13:02:00,50.5,41.5,30.17,West,264,1.0,11.0,71,0.00,,,0.00,meteohub,2013-01-11 21:02:00,
2013-01-11 13:07:00,50.4,41.4,30.17,WNW,286,2.0,11.0,71,0.00,,,0.00,meteohub,2013-01-11 21:07:00,
2013-01-11 13:12:00,50.4,41.7,30.17,West,261,2.0,10.0,72,0.00,,,0.00,meteohub,2013-01-11 21:12:00,
2013-01-11 13:17:00,50.4,41.7,30.17,WSW,247,10.0,10.0,72,0.00,,,0.00,meteohub,2013-01-11 21:17:00,
2013-01-11 13:22:00,50.2,41.9,30.17,NW,306,3.0,14.0,73,0.00,,,0.00,meteohub,2013-01-11 21:22:00,
2013-01-11 13:27:00,50.4,42.1,30.17,NNW,333,5.0,14.0,73,0.00,,,0.00,meteohub,2013-01-11 21:27:00,
2013-01-11 13:32:00,50.2,41.9,30.17,WSW,243,5.0,14.0,73,0.00,,,0.00,meteohub,2013-01-11 21:32:00,
2013-01-11 13:37:00,50.2,42.3,30.17,WNW,299,2.0,13.0,74,0.00,,,0.00,meteohub,2013-01-11 21:37:00,
2013-01-11 13:42:00,50.4,42.1,30.16,West,262,3.0,13.0,73,0.00,,,0.00,meteohub,2013-01-11 21:42:00,
2013-01-11 13:47:00,50.2,41.9,30.16,NNW,335,3.0,15.0,73,0.00,,,0.00,meteohub,2013-01-11 21:47:00,
2013-01-11 13:52:00,49.8,41.9,30.16,WNW,302,6.0,15.0,74,0.00,,,0.00,meteohub,2013-01-11 21:52:00,
2013-01-11 13:57:00,49.8,41.9,30.16,WSW,254,7.0,15.0,74,0.00,,,0.00,meteohub,2013-01-11 21:57:00,
2013-01-11 14:02:00,49.6,42.1,30.16,WSW,254,2.0,11.0,75,0.00,,,0.00,meteohub,2013-01-11 22:02:00,
2013-01-11 14:08:00,49.8,42.3,30.16,WNW,302,6.0,12.0,75,0.00,,,0.00,meteohub,2013-01-11 22:08:00,
2013-01-11 14:13:00,49.8,42.3,30.15,NNW,329,2.0,12.0,75,0.00,,,0.00,meteohub,2013-01-11 22:13:00,
2013-01-11 14:18:00,50.0,42.4,30.16,WSW,258,7.0,14.0,75,0.00,,,0.00,meteohub,2013-01-11 22:18:00,
2013-01-11 14:23:00,50.2,42.6,30.16,WNW,283,3.0,14.0,75,0.00,,,0.00,meteohub,2013-01-11 22:23:00,
2013-01-11 14:28:00,49.8,42.3,30.15,WNW,283,0.0,12.0,75,0.00,,,0.00,meteohub,2013-01-11 22:28:00,
2013-01-11 14:33:00,49.8,42.6,30.15,WSW,249,8.0,12.0,76,0.00,,,0.00,meteohub,2013-01-11 22:33:00,
2013-01-11 14:38:00,49.8,42.6,30.15,NW,305,8.0,10.0,76,0.00,,,0.00,meteohub,2013-01-11 22:38:00,
2013-01-11 14:43:00,50.0,43.2,30.15,NW,314,6.0,11.0,77,0.00,,,0.00,meteohub,2013-01-11 22:43:00,
2013-01-11 14:48:00,50.2,43.3,30.15,West,281,5.0,11.0,77,0.00,,,0.00,meteohub,2013-01-11 22:48:00,
2013-01-11 14:53:00,50.2,43.0,30.15,NW,318,3.0,13.0,76,0.00,,,0.00,meteohub,2013-01-11 22:53:00,
2013-01-11 14:58:00,50.2,43.3,30.15,West,260,10.0,13.0,77,0.00,,,0.00,meteohub,2013-01-11 22:58:00,
2013-01-11 15:03:00,50.5,43.5,30.15,WNW,294,5.0,13.0,77,0.00,,,0.00,meteohub,2013-01-11 23:03:00,
2013-01-11 15:08:00,50.5,43.3,30.14,WNW,295,12.0,12.0,76,0.00,,,0.00,meteohub,2013-01-11 23:08:00,
2013-01-11 15:13:00,50.4,43.2,30.14,NW,314,5.0,13.0,76,0.00,,,0.00,meteohub,2013-01-11 23:13:00,
2013-01-11 15:18:00,50.4,43.2,30.14,NW,324,2.0,16.0,76,0.00,,,0.00,meteohub,2013-01-11 23:18:00,
2013-01-11 15:23:00,50.4,43.3,30.14,WSW,253,2.0,16.0,77,0.00,,,0.00,meteohub,2013-01-11 23:23:00,
2013-01-11 15:28:00,50.4,43.2,30.14,WSW,237,12.0,14.0,76,0.00,,,0.00,meteohub,2013-01-11 23:28:00,
2013-01-11 15:33:00,50.4,43.2,30.14,NW,312,6.0,13.0,76,0.00,,,0.00,meteohub,2013-01-11 23:33:00,
2013-01-11 15:38:00,50.4,43.3,30.14,WNW,288,5.0,15.0,77,0.00,,,0.00,meteohub,2013-01-11 23:38:00,
2013-01-11 15:43:00,50.4,43.3,30.15,WSW,252,3.0,15.0,77,0.00,,,0.00,meteohub,2013-01-11 23:43:00,
2013-01-11 15:48:00,50.5,43.5,30.15,NW,307,4.0,15.0,77,0.00,,,0.00,meteohub,2013-01-11 23:48:00,
2013-01-11 15:53:00,50.2,43.3,30.14,NW,326,6.0,13.0,77,0.00,,,0.00,meteohub,2013-01-11 23:53:00,
2013-01-11 15:58:00,49.8,43.0,30.14,WSW,245,7.0,13.0,77,0.00,,,0.00,meteohub,2013-01-11 23:58:00,
2013-01-11 16:03:00,49.8,43.2,30.14,NW,311,3.0,13.0,78,0.00,,,0.00,meteohub,2013-01-12 00:03:00,
2013-01-11 16:08:00,50.0,43.2,30.14,NW,306,4.0,13.0,77,0.00,,,0.00,meteohub,2013-01-12 00:08:00,
2013-01-11 16:13:00,49.8,43.0,30.14,West,268,2.0,13.0,77,0.00,,,0.00,meteohub,2013-01-12 00:13:00,
2013-01-11 16:19:00,49.8,43.5,30.14,NW,314,4.0,12.0,79,0.00,,,0.00,meteohub,2013-01-12 00:19:00,
2013-01-11 16:24:00,49.8,43.2,30.14,WNW,294,7.0,11.0,78,0.00,,,0.00,meteohub,2013-01-12 00:24:00,
2013-01-11 16:29:00,49.8,43.2,30.14,NNW,329,2.0,12.0,78,0.00,,,0.00,meteohub,2013-01-12 00:29:00,
2013-01-11 16:34:00,49.8,43.2,30.14,NNW,331,5.0,12.0,78,0.00,,,0.00,meteohub,2013-01-12 00:34:00,
2013-01-11 16:39:00,49.6,43.0,30.13,WNW,295,3.0,12.0,78,0.00,,,0.00,meteohub,2013-01-12 00:39:00,
2013-01-11 16:44:00,49.5,42.8,30.13,WNW,294,4.0,12.0,78,0.00,,,0.00,meteohub,2013-01-12 00:44:00,
2013-01-11 16:49:00,49.5,43.2,30.13,WNW,292,0.0,11.0,79,0.00,,,0.00,meteohub,2013-01-12 00:49:00,
2013-01-11 16:54:00,49.3,43.0,30.13,NW,315,5.0,13.0,79,0.00,,,0.00,meteohub,2013-01-12 00:54:00,
2013-01-11 16:59:00,48.9,43.0,30.13,WSW,248,5.0,13.0,80,0.00,,,0.00,meteohub,2013-01-12 00:59:00,
2013-01-11 17:04:00,48.7,43.2,30.13,WSW,258,8.0,13.0,81,0.00,,,0.00,meteohub,2013-01-12 01:04:00,
2013-01-11 17:09:00,48.6,43.0,30.13,WNW,297,3.0,11.0,81,0.00,,,0.00,meteohub,2013-01-12 01:09:00,
2013-01-11 17:14:00,48.6,43.0,30.13,NNW,340,4.0,12.0,81,0.00,,,0.00,meteohub,2013-01-12 01:14:00,
2013-01-11 17:19:00,48.4,42.8,30.13,West,272,1.0,12.0,81,0.00,,,0.00,meteohub,2013-01-12 01:19:00,
2013-01-11 17:24:00,48.4,42.8,30.13,NNW,341,5.0,12.0,81,0.00,,,0.00,meteohub,2013-01-12 01:24:00,
2013-01-11 17:29:00,48.4,43.2,30.13,WNW,286,0.0,10.0,82,0.00,,,0.00,meteohub,2013-01-12 01:29:00,
2013-01-11 17:34:00,48.2,43.0,30.13,WNW,292,0.0,10.0,82,0.00,,,0.00,meteohub,2013-01-12 01:34:00,
2013-01-11 17:39:00,48.0,42.4,30.13,WNW,301,4.0,10.0,81,0.00,,,0.00,meteohub,2013-01-12 01:39:00,
2013-01-11 17:44:00,48.0,42.4,30.13,West,273,2.0,10.0,81,0.00,,,0.00,meteohub,2013-01-12 01:44:00,
2013-01-11 17:50:00,48.0,42.4,30.13,NW,320,0.0,8.0,81,0.00,,,0.00,meteohub,2013-01-12 01:50:00,
2013-01-11 17:55:00,47.8,42.3,30.13,WNW,287,0.0,10.0,81,0.00,,,0.00,meteohub,2013-01-12 01:55:00,
2013-01-11 18:00:00,47.8,42.6,30.13,NW,326,1.0,10.0,82,0.00,,,0.00,meteohub,2013-01-12 02:00:00,
2013-01-11 18:05:00,47.8,42.6,30.13,NW,321,4.0,10.0,82,0.00,,,0.00,meteohub,2013-01-12 02:05:00,
2013-01-11 18:10:00,47.7,42.4,30.13,WNW,286,5.0,9.0,82,0.00,,,0.00,meteohub,2013-01-12 02:10:00,
2013-01-11 18:15:00,47.7,42.4,30.13,NNW,347,3.0,9.0,82,0.00,,,0.00,meteohub,2013-01-12 02:15:00,
2013-01-11 18:20:00,47.5,42.3,30.13,WNW,297,1.0,9.0,82,0.00,,,0.00,meteohub,2013-01-12 02:20:00,
2013-01-11 18:25:00,47.5,42.6,30.13,NW,314,3.0,9.0,83,0.00,,,0.00,meteohub,2013-01-12 02:25:00,
2013-01-11 18:30:00,47.5,42.6,30.14,WNW,301,0.0,9.0,83,0.00,,,0.00,meteohub,2013-01-12 02:30:00,
2013-01-11 18:35:00,47.3,42.4,30.13,West,264,6.0,8.0,83,0.00,,,0.00,meteohub,2013-01-12 02:35:00,
2013-01-11 18:40:00,47.3,42.4,30.13,NW,312,0.0,8.0,83,0.00,,,0.00,meteohub,2013-01-12 02:40:00,
2013-01-11 18:45:00,47.1,42.6,30.13,North,349,0.0,7.0,84,0.00,,,0.00,meteohub,2013-01-12 02:45:00,
2013-01-11 18:50:00,47.1,42.6,30.13,NW,308,4.0,6.0,84,0.00,,,0.00,meteohub,2013-01-12 02:50:00,
2013-01-11 18:55:00,47.1,42.6,30.13,NW,311,0.0,6.0,84,0.00,,,0.00,meteohub,2013-01-12 02:55:00,
2013-01-11 19:00:00,46.9,42.4,30.13,NW,326,0.0,5.0,84,0.00,,,0.00,meteohub,2013-01-12 03:00:00,
2013-01-11 19:05:00,46.9,42.4,30.13,NW,308,1.0,5.0,84,0.00,,,0.00,meteohub,2013-01-12 03:05:00,
2013-01-11 19:10:00,46.8,42.3,30.13,NW,320,0.0,4.0,84,0.00,,,0.00,meteohub,2013-01-12 03:10:00,
2013-01-11 19:15:00,46.8,42.3,30.13,NNW,333,0.0,4.0,84,0.00,,,0.00,meteohub,2013-01-12 03:15:00,
2013-01-11 19:20:00,46.6,42.1,30.13,NNW,333,0.0,4.0,84,0.00,,,0.00,meteohub,2013-01-12 03:20:00,
2013-01-11 19:25:00,46.6,42.1,30.13,NW,308,0.0,2.0,84,0.00,,,0.00,meteohub,2013-01-12 03:25:00,
2013-01-11 19:31:00,46.6,41.7,30.13,WNW,303,0.0,3.0,83,0.00,,,0.00,meteohub,2013-01-12 03:31:00,
2013-01-11 19:36:00,46.6,41.7,30.13,NW,308,0.0,3.0,83,0.00,,,0.00,meteohub,2013-01-12 03:36:00,
2013-01-11 19:41:00,46.6,41.4,30.12,NW,309,1.0,3.0,82,0.00,,,0.00,meteohub,2013-01-12 03:41:00,
2013-01-11 19:46:00,46.6,41.4,30.13,NW,308,0.0,3.0,82,0.00,,,0.00,meteohub,2013-01-12 03:46:00,
2013-01-11 19:51:00,46.6,41.0,30.13,NW,315,1.0,2.0,81,0.00,,,0.00,meteohub,2013-01-12 03:51:00,
2013-01-11 19:56:00,46.6,41.0,30.12,WNW,289,0.0,2.0,81,0.00,,,0.00,meteohub,2013-01-12 03:56:00,
2013-01-11 20:01:00,46.6,41.4,30.13,WNW,283,0.0,2.0,82,0.00,,,0.00,meteohub,2013-01-12 04:01:00,
2013-01-11 20:06:00,46.6,41.4,30.13,WNW,283,1.0,2.0,82,0.00,,,0.00,meteohub,2013-01-12 04:06:00,
2013-01-11 20:11:00,46.2,41.4,30.13,NE,34,1.0,2.0,83,0.00,,,0.00,meteohub,2013-01-12 04:11:00,
2013-01-11 20:16:00,46.0,41.2,30.13,NNE,33,1.0,2.0,83,0.00,,,0.00,meteohub,2013-01-12 04:16:00,
2013-01-11 20:21:00,45.9,40.6,30.14,NNE,33,0.0,2.0,82,0.00,,,0.00,meteohub,2013-01-12 04:21:00,
2013-01-11 20:26:00,45.7,40.5,30.14,NNE,33,0.0,2.0,82,0.00,,,0.00,meteohub,2013-01-12 04:26:00,
2013-01-11 20:31:00,45.5,40.3,30.14,NNE,33,0.0,2.0,82,0.00,,,0.00,meteohub,2013-01-12 04:31:00,
2013-01-11 20:36:00,45.3,40.5,30.14,NNE,32,0.0,2.0,83,0.00,,,0.00,meteohub,2013-01-12 04:36:00,
2013-01-11 20:42:00,45.1,39.9,30.14,North,11,0.0,2.0,82,0.00,,,0.00,meteohub,2013-01-12 04:42:00,
2013-01-11 20:47:00,45.5,40.1,30.15,North,356,0.0,3.0,81,0.00,,,0.00,meteohub,2013-01-12 04:47:00,
2013-01-11 20:52:00,45.7,39.9,30.15,North,349,2.0,3.0,80,0.00,,,0.00,meteohub,2013-01-12 04:52:00,
2013-01-11 20:57:00,46.0,39.9,30.15,NNW,332,0.0,4.0,79,0.00,,,0.00,meteohub,2013-01-12 04:57:00,
2013-01-11 21:00:00,46.0,39.6,30.15,NNE,26,1.0,4.0,78,0.00,,,0.00,meteohub,2013-01-12 05:00:00,
2013-01-11 21:07:00,46.2,39.7,30.15,NNE,27,0.0,4.0,78,0.00,,,0.00,meteohub,2013-01-12 05:07:00,
2013-01-11 21:12:00,46.0,39.6,30.15,ENE,63,0.0,4.0,78,0.00,,,0.00,meteohub,2013-01-12 05:12:00,
2013-01-11 21:15:00,45.9,39.4,30.15,East,85,0.0,2.0,78,0.00,,,0.00,meteohub,2013-01-12 05:15:00,
2013-01-11 21:16:00,45.9,39.7,30.15,East,85,0.0,2.0,79,0.00,,,0.00,meteohub,2013-01-12 05:16:00,
2013-01-11 21:21:00,45.7,39.6,30.15,ENE,75,0.0,2.0,79,0.00,,,0.00,meteohub,2013-01-12 05:21:00,
2013-01-11 21:26:00,45.9,40.6,30.15,NE,39,0.0,2.0,82,0.00,,,0.00,meteohub,2013-01-12 05:26:00,
2013-01-11 21:31:00,45.9,41.0,30.15,NE,35,0.0,3.0,83,0.00,,,0.00,meteohub,2013-01-12 05:31:00,
2013-01-11 21:36:00,45.9,41.4,30.15,NE,37,0.0,3.0,84,0.00,,,0.00,meteohub,2013-01-12 05:36:00,
2013-01-11 21:41:00,45.9,41.4,30.16,NE,36,0.0,2.0,84,0.00,,,0.00,meteohub,2013-01-12 05:41:00,
2013-01-11 21:46:00,45.7,41.2,30.16,ENE,77,0.0,1.0,84,0.00,,,0.00,meteohub,2013-01-12 05:46:00,
2013-01-11 21:51:00,45.7,41.4,30.16,East,85,1.0,4.0,85,0.00,,,0.00,meteohub,2013-01-12 05:51:00,
2013-01-11 21:57:00,45.5,41.2,30.16,North,356,2.0,4.0,85,0.00,,,0.00,meteohub,2013-01-12 05:57:00,
2013-01-11 22:02:00,45.3,41.0,30.16,NNE,18,4.0,4.0,85,0.00,,,0.00,meteohub,2013-01-12 06:02:00,
2013-01-11 22:07:00,45.3,40.8,30.16,NE,36,1.0,5.0,84,0.00,,,0.00,meteohub,2013-01-12 06:07:00,
2013-01-11 22:12:00,45.3,40.8,30.16,NNE,23,1.0,6.0,84,0.00,,,0.00,meteohub,2013-01-12 06:12:00,
2013-01-11 22:17:00,45.1,40.6,30.16,NNE,31,3.0,6.0,84,0.00,,,0.00,meteohub,2013-01-12 06:17:00,
2013-01-11 22:22:00,45.1,40.6,30.16,NNE,32,1.0,6.0,84,0.00,,,0.00,meteohub,2013-01-12 06:22:00,
2013-01-11 22:27:00,45.0,40.5,30.17,NE,55,0.0,5.0,84,0.00,,,0.00,meteohub,2013-01-12 06:27:00,
2013-01-11 22:32:00,45.0,40.5,30.16,NNE,16,1.0,5.0,84,0.00,,,0.00,meteohub,2013-01-12 06:32:00,
2013-01-11 22:37:00,45.0,40.1,30.16,NNE,31,1.0,4.0,83,0.00,,,0.00,meteohub,2013-01-12 06:37:00,
2013-01-11 22:42:00,45.0,40.1,30.17,NNE,29,0.0,5.0,83,0.00,,,0.00,meteohub,2013-01-12 06:42:00,
2013-01-11 22:47:00,45.0,40.1,30.17,NNW,347,2.0,7.0,83,0.00,,,0.00,meteohub,2013-01-12 06:47:00,
2013-01-11 22:52:00,45.0,40.1,30.17,NNE,18,1.0,7.0,83,0.00,,,0.00,meteohub,2013-01-12 06:52:00,
2013-01-11 22:57:00,44.8,39.9,30.17,NNE,16,0.0,7.0,83,0.00,,,0.00,meteohub,2013-01-12 06:57:00,
2013-01-11 23:02:00,44.8,39.9,30.17,North,11,0.0,4.0,83,0.00,,,0.00,meteohub,2013-01-12 07:02:00,
2013-01-11 23:07:00,44.8,39.6,30.17,NNE,18,0.0,6.0,82,0.00,,,0.00,meteohub,2013-01-12 07:07:00,
2013-01-11 23:12:00,44.8,39.6,30.17,North,355,0.0,6.0,82,0.00,,,0.00,meteohub,2013-01-12 07:12:00,
2013-01-11 23:17:00,44.6,39.2,30.17,NNE,12,3.0,6.0,81,0.00,,,0.00,meteohub,2013-01-12 07:17:00,
2013-01-11 23:22:00,44.8,39.4,30.17,NNE,23,1.0,6.0,81,0.00,,,0.00,meteohub,2013-01-12 07:22:00,
2013-01-11 23:27:00,44.6,39.2,30.17,NE,38,3.0,6.0,81,0.00,,,0.00,meteohub,2013-01-12 07:27:00,
2013-01-11 23:32:00,44.6,39.2,30.17,ENE,60,5.0,8.0,81,0.00,,,0.00,meteohub,2013-01-12 07:32:00,
2013-01-11 23:37:00,44.8,39.0,30.17,ENE,78,4.0,9.0,80,0.00,,,0.00,meteohub,2013-01-12 07:37:00,
2013-01-11 23:42:00,44.8,39.0,30.17,NE,38,5.0,9.0,80,0.00,,,0.00,meteohub,2013-01-12 07:42:00,
2013-01-11 23:47:00,45.0,39.2,30.18,ENE,58,3.0,9.0,80,0.00,,,0.00,meteohub,2013-01-12 07:47:00,
2013-01-11 23:52:00,45.0,39.2,30.18,NNE,21,4.0,8.0,80,0.00,,,0.00,meteohub,2013-01-12 07:52:00,
2013-01-11 23:57:00,44.8,39.0,30.18,NE,56,0.0,8.0,80,0.00,,,0.00,meteohub,2013-01-12 07:57:00,